Location: Northern Prairie Star Party
(53.2167°N, 112.5333°W)
Time: 15:47:12
(UTC-07:00)

Daily predictions for brighter satellites

Satellite Brightness Start Highest point End
(mag) Time Altitude Azimuth Time Altitude Azimuth Time Altitude Azimuth
Cosmos 2219 3.3 18:22:20 10° SSW 18:27:59 84° WNW 18:33:42 10° NNE
Cosmos 1862 3.7 18:29:28 10° SSW 18:33:25 69° WNW 18:37:25 10° N
SJ-6B 3.9 18:30:22 10° ESE 18:33:29 24° ENE 18:36:41 10° N
Ariane Rocket 4.3 18:29:05 10° S 18:33:58 46° W 18:38:55 10° NNW
CENTAUR R/B 3.6 18:29:16 10° SSE 18:34:12 26° ESE 18:39:40 10° ENE
H-2A R/B 3.0 18:31:50 10° SE 18:35:36 47° ENE 18:39:22 10° N
COSMO-SKYMED 1 2.7 18:31:33 10° NNE 18:35:52 57° E 18:40:09 10° S
USA 267 3.4 18:30:53 10° E 18:37:23 68° N 18:43:52 10° WNW
Cosmos 2297 Rocket 2.4 18:34:48 10° S 18:40:16 52° ESE 18:45:45 10° NE
MOS 1 4.4 18:35:08 10° SSE 18:40:49 87° WSW 18:46:33 10° NNW
Okean 1 4.0 18:37:09 10° N 18:40:50 34° ENE 18:44:29 10° SE
ERS-2 2.5 18:37:33 10° SE 18:41:02 41° ENE 18:44:33 10° N
Cosmos 1464 Rocket 4.0 18:36:28 10° N 18:42:32 57° ENE 18:48:33 10° SSE
Cosmos 1603 4.0 18:39:21 10° NNW 18:44:50 46° NE 18:50:15 10° ESE
Iridium 4 Rocket 3.7 18:40:49 10° N 18:45:36 41° ENE 18:49:57 10° SSE
Cosmos 1812 2.7 18:41:49 10° N 18:45:43 81° E 18:49:36 10° SSE
Cosmos 1452 Rocket 3.8 18:43:14 10° NNW 18:48:32 76° WSW 18:53:46 10° SSE
CZ-4 R/B 3.5 18:46:49 10° SSW 18:50:27 31° W 18:54:01 10° NNW
Cosmos 158 Rocket 4.4 18:48:27 10° S 18:52:52 35° ESE 18:57:18 10° NE
Cosmos 1072 Rocket 4.5 18:48:13 10° N 18:54:25 73° ENE 19:00:41 10° SSE
CZ-2D R/B 4.0 18:51:53 10° SE 18:55:23 33° ENE 18:58:55 10° N
Okean 3 3.4 18:52:30 10° N 18:56:44 87° E 19:00:55 10° S
Cosmos 1674 Rocket 3.7 18:53:37 10° NNW 18:57:59 78° W 19:02:19 10° S
SPOT 3 Rocket 3.8 18:57:23 10° S 19:02:36 75° WSW 19:07:51 10° NNW
ATLAS 3B R/B 3.0 18:56:25 10° SW 19:03:35 74° NW 19:10:27 10° NE
Aureole 3 3.7 18:59:27 10° S 19:04:49 66° E 19:09:02 10° NNE
Cosmos 921 Rocket 3.0 19:00:49 10° NNW 19:05:22 75° ENE 19:09:52 10° SSE
Cosmos 1420 Rocket 4.5 19:02:48 10° NNW 19:08:03 66° WSW 19:13:17 10° SSE
Cosmos 405 2.9 19:04:39 10° SSW 19:08:10 89° WNW 19:11:43 10° NNE
Meteor 1-18 Rocket 4.2 19:02:58 10° NNW 19:08:39 87° ENE 19:14:13 10° SSE
NOSS 3-2 (A) 3.6 19:02:36 10° SW 19:08:43 88° SE 19:15:40 10° NE
Cosmos 2082 3.6 19:04:15 10° SSW 19:09:50 74° ESE 19:15:31 10° NE
Cosmos 2285 Rocket 4.3 19:05:51 10° SSW 19:12:13 74° WNW 19:18:39 10° NNE
Cosmos 1908 Rocket 3.7 19:08:51 10° S 19:13:12 54° E 19:17:35 10° NNE
EO 1 Del DPAF 3.1 19:11:44 10° NNE 19:15:35 71° ESE 19:19:23 10° S
FREGAT/IRIS 2.5 19:13:18 10° SSE 19:16:16 86° WSW 19:19:16 10° NNW
Cosmos 2084 Rocket 3.5 19:13:32 10° SW 19:17:50 77° NW 19:21:29 13° NE
Cosmos 1733 Rocket 3.5 19:14:27 10° SSW 19:18:44 65° WNW 19:23:04 10° N
Cosmos 2034 Rocket 4.0 19:12:19 10° N 19:18:45 76° ENE 19:25:07 10° SSE
Cosmos 1891 Rocket 4.5 19:13:26 10° N 19:19:45 87° E 19:25:53 10° S
Meteor 2-4 Rocket 4.1 19:15:28 10° N 19:21:05 45° ENE 19:26:32 10° SE
Meteor 1-19 Rocket 4.2 19:16:38 10° N 19:22:07 59° ENE 19:27:35 10° SSE
Landsat 4 3.8 19:19:35 10° NNE 19:23:20 80° WNW 19:27:05 10° SSW
Cosmos 1437 Rocket 3.3 19:19:41 10° SSE 19:23:29 38° E 19:27:19 10° NNE
Meteor 1-25 Rocket 4.1 19:18:19 10° S 19:23:50 73° E 19:29:26 10° NNE
SKYMED 2 4.4 19:19:39 10° N 19:23:54 53° WNW 19:28:07 10° SW
ARGOS Delta rocket 4.3 19:19:48 10° NNE 19:24:23 36° E 19:28:42 10° SSE
USA 238 DEB 4.2 19:19:40 10° WSW 19:26:31 61° NNW 19:33:32 10° NE
USA 238 4.2 19:19:45 10° WSW 19:26:37 61° NNW 19:33:37 10° NE
ARGOS 4.5 19:28:51 19° ENE 19:30:02 21° NE 19:33:55 10° N
Cosmos 1634 Rocket 4.3 19:25:04 10° N 19:30:57 44° ENE 19:36:49 10° SE
Resurs 1-3 3.9 19:29:09 16° SE 19:32:26 45° ENE 19:36:38 10° N
Cosmos 1975 Rocket 3.0 19:29:13 10° N 19:33:41 80° ENE 19:38:09 10° SSE
Meteor 1-11 Rocket 4.3 19:29:22 10° SSE 19:34:18 33° E 19:39:21 10° NNE
Cosmos 1184 Rocket 3.2 19:32:46 10° N 19:35:55 40° ENE 19:36:16 38° E
SeaSat 1 2.5 19:31:04 10° SSE 19:36:01 84° WSW 19:40:59 10° NNW
Cosmos 2082 Rocket 4.3 19:36:33 10° NNW 19:39:09 13° N 19:41:46 10° NE
Cosmos 1939 Rocket 3.1 19:40:06 25° SE 19:42:10 48° ENE 19:46:08 10° N
USA 215 4.0 19:40:21 24° E 19:42:59 31° SE 19:48:41 10° SSW
HJ-1C 4.1 19:42:16 10° S 19:45:38 56° W 19:49:01 10° NNW
Envisat 2.9 19:40:34 10° SSE 19:45:39 87° ENE 19:50:47 10° NNW
Cosmos 468 4.4 19:40:50 10° SSW 19:46:06 83° ESE 19:51:23 10° NNE
Resurs 01 Rocket 1.6 19:43:36 18° SE 19:46:44 60° ENE 19:51:07 10° N
Thor Agena Rocket 3.5 19:41:55 10° NNE 19:46:57 54° ESE 19:51:53 10° S
SL-8 R/B 4.5 19:42:39 10° SW 19:47:00 36° SSE 19:48:21 30° SE
YAOGAN 6 2.7 19:49:04 45° ESE 19:49:39 51° ENE 19:53:10 10° N
COSMOS 2455 4.1 19:45:55 10° SSE 19:48:54 21° SE 19:48:54 21° SE
CZ-4C R/B 2.8 19:44:23 10° NW 19:51:10 75° NE 19:55:55 25° ESE
Cosmos 1943 3.1 19:45:54 10° NNW 19:51:35 73° NE 19:55:02 24° SE
Cosmos 1110 Rocket 4.1 19:49:20 10° NNW 19:54:39 82° WSW 19:59:34 12° SSE
Cosmos 1269 Rocket 3.9 19:53:22 10° SSW 19:58:35 66° ESE 20:03:51 10° NNE
USA 32 4.1 19:53:33 10° S 19:58:47 79° W 20:04:03 10° N
USA 186 1.7 19:59:32 45° S 20:00:27 86° WSW 20:03:48 10° NNW
DNEPR-1 R/B 4.2 19:56:30 10° WSW 20:00:40 53° NW 20:03:57 18° NE
ATLAS CENTAUR R/B 1.3 19:57:15 10° NW 20:01:20 79° NE 20:02:24 50° ESE
NOSS 3-2 (C) 3.8 19:56:44 10° WSW 20:02:56 69° NW 20:09:10 13° NE
Cosmos 1536 Rocket 3.6 19:59:44 10° N 20:04:08 56° ENE 20:04:47 50° ESE
Cosmos 1633 4.1 20:01:10 10° SW 20:04:30 37° WNW 20:07:53 10° N
SJ-6B 4.1 20:04:23 10° S 20:07:59 40° W 20:11:41 10° NNW
Meteor 1-23 Rocket 4.2 20:04:25 10° N 20:10:14 66° ENE 20:13:10 30° SSE
Cosmos 2227 Rocket 3.4 20:05:22 10° WSW 20:10:43 42° NW 20:16:07 10° NNE
Cosmos 1782 Rocket 3.7 20:06:39 10° SSW 20:11:05 73° WNW 20:15:31 10° N
Terra 4.1 20:16:16 11° NNE 20:16:16 11° NNE 20:16:39 10° NNE
Sich 1 Rocket 4.5 20:13:10 10° SSW 20:17:33 51° WNW 20:21:54 10° N
USA 267 3.3 20:17:24 36° SE 20:20:23 79° SSW 20:26:58 10° WNW
H-2A R/B 3.0 20:21:14 33° NE 20:21:14 33° NE 20:25:38 10° N
Tsikada Rocket 4.1 20:14:41 10° SSW 20:21:08 83° W 20:27:36 10° N
Cosmos 1025 Rocket 4.3 20:17:22 10° N 20:19:56 28° NNE 20:19:56 28° NNE
CENTAUR R/B 2.6 20:17:38 10° SW 20:23:57 89° SE 20:29:18 20° NE
Cosmos 1992 Rocket 4.5 20:19:06 10° NNW 20:24:01 42° NE 20:24:01 42° NE
CSL-04 DEB 4.4 20:24:35 66° NNE 20:24:35 66° NNE 20:28:05 10° NNW
Cosmos 2297 Rocket 3.5 20:19:12 10° WSW 20:24:31 39° NW 20:29:51 10° NNE
Okean 2 Rocket 3.2 20:27:25 10° SSW 20:31:48 71° WNW 20:36:15 10° N
SPOT 5 4.3 20:34:44 27° NE 20:34:44 27° NE 20:38:05 10° N
ERS-1 Rocket 3.7 20:36:02 38° NE 20:36:02 38° NE 20:39:49 10° N
Spot 2 Rocket 3.7 20:32:44 26° S 20:35:33 67° WSW 20:40:39 10° NNW
MetOp-A 4.2 20:40:36 58° NE 20:40:36 58° NE 20:45:35 10° N
Cosmos 1833 Rocket 4.5 20:37:01 10° NNW 20:40:51 18° NNE 20:41:22 18° NNE
ATLAS 3B R/B 3.8 20:48:48 10° W 20:55:16 38° NNW 20:58:55 22° NE
Cosmos 2279 Rocket 3.9 20:51:05 10° NNW 20:57:21 84° W 20:59:00 52° S
ARGOS 3.3 21:10:21 68° NNW 21:10:21 68° NNW 21:15:06 10° NNW
Resurs 01 Rocket 4.0 21:21:10 14° SW 21:23:37 20° W 21:26:55 10° NW
Cosmos 2082 Rocket 3.9 21:20:49 10° NNW 21:24:14 23° NNE 21:24:14 23° NNE
USA 215 3.3 21:27:42 64° SSW 21:27:42 64° SSW 21:33:14 10° WSW
COSMOS 2455 4.4 21:29:53 10° SW 21:32:11 25° SW 21:32:11 25° SW
COSMOS 2406 4.0 21:31:33 10° NNW 21:35:31 46° NNW 21:35:31 46° NNW
CZ-4C R/B 3.8 21:33:06 10° NW 21:39:36 40° WSW 21:41:09 36° SSW
ATLAS CENTAUR R/B 4.0 21:36:56 10° WNW 21:38:40 17° W 21:38:40 17° W
Terra 4.2 21:55:09 17° N 21:55:09 17° N 21:56:16 10° N
H-2A R/B 3.5 22:01:51 36° NW 22:01:51 36° NW 22:05:21 10° NNW
USA 267 4.4 22:04:45 32° WSW 22:04:45 32° WSW 22:09:52 10° WNW
CENTAUR R/B 3.7 22:09:04 10° W 22:15:26 44° NNW 22:16:31 41° N
ATLAS 3B R/B 4.0 22:41:17 10° NW 22:46:10 33° NNW 22:46:10 33° NNW
